Time,TemperatureF,DewpointF,PressureIn,WindDirection,WindDirectionDegrees,WindSpeedMPH,WindSpeedGustMPH,Humidity,HourlyPrecipIn,Conditions,Clouds,dailyrainin,SoftwareType,DateUTC
2013-01-15 00:00:00,38.3,26.8,30.24,NE,45,0.0,0.0,63,0.00,CLR,OVC,0.00,WeatherDisplay:10.37,2013-01-15 05:00:00,
2013-01-15 00:05:00,38.3,27.2,30.24,NE,45,0.0,0.0,64,0.00,CLR,OVC,0.00,WeatherDisplay:10.37,2013-01-15 05:05:00,
2013-01-15 00:10:00,37.9,26.8,30.23,NE,45,0.0,0.0,64,0.00,CLR,OVC,0.00,WeatherDisplay:10.37,2013-01-15 05:10:00,
2013-01-15 00:20:00,37.9,26.5,30.23,NE,45,0.0,0.0,63,0.00,CLR,OVC,0.00,WeatherDisplay:10.37,2013-01-15 05:20:00,
2013-01-15 00:25:00,37.9,26.5,30.23,NE,45,0.0,0.0,63,0.00,CLR,OVC,0.00,WeatherDisplay:10.37,2013-01-15 05:25:00,
2013-01-15 00:30:00,37.8,26.3,30.25,NE,45,0.0,0.0,63,0.00,CLR,OVC,0.00,WeatherDisplay:10.37,2013-01-15 05:30:00,
2013-01-15 00:50:00,37.8,26.3,30.27,NE,45,0.0,0.0,63,0.00,CLR,OVC,0.00,WeatherDisplay:10.37,2013-01-15 05:50:00,
2013-01-15 01:00:00,37.6,26.1,30.27,NE,45,0.0,0.0,63,0.00,CLR,OVC,0.00,WeatherDisplay:10.37,2013-01-15 06:00:00,
2013-01-15 01:10:00,37.6,26.1,30.27,NE,45,0.0,0.0,63,0.00,CLR,OVC,0.00,WeatherDisplay:10.37,2013-01-15 06:10:00,
2013-01-15 01:15:00,37.6,26.1,30.27,NE,45,0.0,0.0,63,0.00,CLR,OVC,0.00,WeatherDisplay:10.37,2013-01-15 06:15:00,
2013-01-15 01:20:00,37.4,26.7,30.27,NE,45,0.0,0.0,65,0.00,CLR,OVC,0.00,WeatherDisplay:10.37,2013-01-15 06:20:00,
2013-01-15 01:30:00,37.6,26.5,30.29,NE,45,0.0,0.0,64,0.00,CLR,OVC,0.00,WeatherDisplay:10.37,2013-01-15 06:30:00,
2013-01-15 01:40:00,37.6,26.9,30.29,NE,45,0.0,0.0,65,0.00,CLR,OVC,0.00,WeatherDisplay:10.37,2013-01-15 06:40:00,
2013-01-15 01:45:00,37.6,26.9,30.29,NE,45,0.0,0.0,65,0.00,CLR,OVC,0.00,WeatherDisplay:10.37,2013-01-15 06:45:00,
2013-01-15 01:50:00,37.6,26.1,30.30,NE,45,0.0,0.0,63,0.00,CLR,OVC,0.00,WeatherDisplay:10.37,2013-01-15 06:50:00,
2013-01-15 02:05:00,37.2,26.2,30.30,NE,45,0.0,0.0,64,0.00,CLR,OVC,0.00,WeatherDisplay:10.37,2013-01-15 07:05:00,
2013-01-15 02:10:00,37.2,25.8,30.29,NE,45,0.0,0.0,63,0.00,CLR,OVC,0.00,WeatherDisplay:10.37,2013-01-15 07:10:00,
2013-01-15 02:25:00,37.2,26.2,30.29,NE,45,0.0,0.0,64,0.00,CLR,OVC,0.00,WeatherDisplay:10.37,2013-01-15 07:25:00,
2013-01-15 02:30:00,36.9,25.8,30.29,NE,45,0.0,0.0,64,0.00,CLR,OVC,0.00,WeatherDisplay:10.37,2013-01-15 07:30:00,
2013-01-15 02:40:00,36.7,25.6,30.29,NE,45,0.0,0.0,64,0.00,CLR,OVC,0.00,WeatherDisplay:10.37,2013-01-15 07:40:00,
2013-01-15 02:50:00,36.7,26.0,30.27,NE,45,0.0,0.0,65,0.00,CLR,OVC,0.00,WeatherDisplay:10.37,2013-01-15 07:50:00,
2013-01-15 03:10:00,36.5,25.8,30.26,NE,45,0.0,0.0,65,0.00,CLR,OVC,0.00,WeatherDisplay:10.37,2013-01-15 08:10:00,
2013-01-15 03:20:00,36.5,25.8,30.26,NE,45,0.0,0.0,65,0.00,CLR,OVC,0.00,WeatherDisplay:10.37,2013-01-15 08:20:00,
2013-01-15 03:30:00,36.5,25.5,30.29,NE,45,0.0,0.0,64,0.00,CLR,OVC,0.00,WeatherDisplay:10.37,2013-01-15 08:30:00,
2013-01-15 03:40:00,36.3,25.3,30.29,NE,45,0.0,0.0,64,0.00,CLR,OVC,0.00,WeatherDisplay:10.37,2013-01-15 08:40:00,
2013-01-15 03:45:00,36.3,24.9,30.29,NE,45,0.0,0.0,63,0.00,CLR,OVC,0.00,WeatherDisplay:10.37,2013-01-15 08:45:00,
2013-01-15 03:55:00,36.3,24.9,30.26,NE,45,0.0,0.0,63,0.00,CLR,OVC,0.00,WeatherDisplay:10.37,2013-01-15 08:55:00,
2013-01-15 04:00:00,36.3,24.5,30.26,NE,45,0.0,0.0,62,0.00,CLR,OVC,0.00,WeatherDisplay:10.37,2013-01-15 09:00:00,
2013-01-15 04:05:00,36.3,24.9,30.26,NE,45,0.0,0.0,63,0.00,CLR,OVC,0.00,WeatherDisplay:10.37,2013-01-15 09:05:00,
2013-01-15 04:10:00,36.5,24.7,30.26,NE,45,0.0,0.0,62,0.00,CLR,OVC,0.00,WeatherDisplay:10.37,2013-01-15 09:10:00,
2013-01-15 04:20:00,36.3,24.9,30.26,NE,45,0.0,0.0,63,0.00,CLR,OVC,0.00,WeatherDisplay:10.37,2013-01-15 09:20:00,
2013-01-15 04:30:00,36.1,24.4,30.25,NE,45,0.0,0.0,62,0.00,CLR,OVC,0.00,WeatherDisplay:10.37,2013-01-15 09:30:00,
2013-01-15 04:40:00,36.1,24.7,30.25,NE,45,0.0,0.0,63,0.00,CLR,OVC,0.00,WeatherDisplay:10.37,2013-01-15 09:40:00,
2013-01-15 04:50:00,35.8,24.4,30.26,NE,45,0.0,0.0,63,0.00,CLR,OVC,0.00,WeatherDisplay:10.37,2013-01-15 09:50:00,
2013-01-15 05:00:00,35.8,24.8,30.26,NE,45,0.0,0.0,64,0.00,CLR,OVC,0.00,WeatherDisplay:10.37,2013-01-15 10:00:00,
2013-01-15 05:05:00,35.6,24.6,30.26,NE,45,0.0,0.0,64,0.00,CLR,OVC,0.00,WeatherDisplay:10.37,2013-01-15 10:05:00,
2013-01-15 05:10:00,35.6,24.6,30.27,NE,45,0.0,0.0,64,0.00,CLR,OVC,0.00,WeatherDisplay:10.37,2013-01-15 10:10:00,
2013-01-15 05:20:00,35.4,24.8,30.27,NE,45,0.0,0.0,65,0.00,CLR,OVC,0.00,WeatherDisplay:10.37,2013-01-15 10:20:00,
2013-01-15 05:30:00,35.4,25.2,30.29,NE,45,0.0,0.0,66,0.00,CLR,OVC,0.00,WeatherDisplay:10.37,2013-01-15 10:30:00,
2013-01-15 05:40:00,34.9,25.0,30.29,NE,45,0.0,0.0,67,0.00,CLR,OVC,0.00,WeatherDisplay:10.37,2013-01-15 10:40:00,
2013-01-15 05:50:00,34.9,25.0,30.29,NE,45,0.0,0.0,67,0.00,CLR,OVC,0.00,WeatherDisplay:10.37,2013-01-15 10:50:00,
2013-01-15 06:00:00,34.9,24.7,30.29,NE,45,0.0,0.0,66,0.00,CLR,OVC,0.00,WeatherDisplay:10.37,2013-01-15 11:00:00,
2013-01-15 06:10:00,35.1,24.8,30.29,NE,45,0.0,0.0,66,0.00,CLR,OVC,0.00,WeatherDisplay:10.37,2013-01-15 11:10:00,
2013-01-15 06:15:00,34.9,24.7,30.29,NE,45,0.0,0.0,66,0.00,CLR,OVC,0.00,WeatherDisplay:10.37,2013-01-15 11:15:00,
2013-01-15 06:20:00,34.9,24.7,30.29,NE,45,0.0,0.0,66,0.00,CLR,OVC,0.00,WeatherDisplay:10.37,2013-01-15 11:20:00,
2013-01-15 06:30:00,34.7,24.9,30.28,NE,45,0.0,0.0,67,0.00,CLR,OVC,0.00,WeatherDisplay:10.37,2013-01-15 11:30:00,
2013-01-15 06:40:00,34.5,25.0,30.28,NE,45,0.0,0.0,68,0.00,CLR,OVC,0.00,WeatherDisplay:10.37,2013-01-15 11:40:00,
2013-01-15 06:50:00,34.3,24.5,30.30,NE,45,0.0,0.0,67,0.00,CLR,OVC,0.00,WeatherDisplay:10.37,2013-01-15 11:50:00,
2013-01-15 07:00:00,34.7,24.9,30.30,NE,45,0.0,0.0,67,0.00,CLR,OVC,0.00,WeatherDisplay:10.37,2013-01-15 12:00:00,
2013-01-15 07:10:00,34.2,24.7,30.31,NE,45,0.0,0.0,68,0.00,CLR,OVC,0.00,WeatherDisplay:10.37,2013-01-15 12:10:00,
2013-01-15 07:15:00,34.3,25.2,30.31,NE,45,0.0,0.0,69,0.00,CLR,OVC,0.00,WeatherDisplay:10.37,2013-01-15 12:15:00,
2013-01-15 07:20:00,34.3,25.2,30.31,NE,45,0.0,0.0,69,0.00,CLR,OVC,0.00,WeatherDisplay:10.37,2013-01-15 12:20:00,
2013-01-15 07:25:00,34.3,25.2,30.31,NE,45,0.0,0.0,69,0.00,CLR,OVC,0.00,WeatherDisplay:10.37,2013-01-15 12:25:00,
2013-01-15 07:30:00,34.3,24.9,30.32,NE,45,0.0,0.0,68,0.00,CLR,OVC,0.00,WeatherDisplay:10.37,2013-01-15 12:30:00,
2013-01-15 07:40:00,34.3,24.9,30.32,NE,45,0.0,0.0,68,0.00,CLR,OVC,0.00,WeatherDisplay:10.37,2013-01-15 12:40:00,
2013-01-15 07:45:00,34.2,25.0,30.32,NE,45,0.0,0.0,69,0.00,CLR,OVC,0.00,WeatherDisplay:10.37,2013-01-15 12:45:00,
2013-01-15 07:50:00,34.3,24.9,30.33,NE,45,0.0,0.0,68,0.00,CLR,OVC,0.00,WeatherDisplay:10.37,2013-01-15 12:50:00,
2013-01-15 08:00:00,34.5,25.7,30.33,NE,45,0.0,0.0,70,0.00,CLR,OVC,0.00,WeatherDisplay:10.37,2013-01-15 13:00:00,
2013-01-15 08:10:00,34.3,25.6,30.35,NE,45,0.0,0.0,70,0.00,CLR,OVC,0.00,WeatherDisplay:10.37,2013-01-15 13:10:00,
2013-01-15 08:20:00,34.9,26.4,30.35,NE,45,0.0,0.0,71,0.00,CLR,OVC,0.00,WeatherDisplay:10.37,2013-01-15 13:20:00,
2013-01-15 08:30:00,34.9,26.4,30.34,NE,45,0.0,0.0,71,0.00,CLR,OVC,0.00,WeatherDisplay:10.37,2013-01-15 13:30:00,
2013-01-15 08:40:00,35.1,26.6,30.34,NE,45,0.0,0.0,71,0.00,CLR,OVC,0.00,WeatherDisplay:10.37,2013-01-15 13:40:00,
2013-01-15 08:50:00,35.1,26.6,30.35,NE,45,0.0,0.0,71,0.00,CLR,OVC,0.00,WeatherDisplay:10.37,2013-01-15 13:50:00,
2013-01-15 09:00:00,35.6,26.8,30.35,NE,45,0.0,0.0,70,0.00,CLR,OVC,0.00,WeatherDisplay:10.37,2013-01-15 14:00:00,
2013-01-15 09:10:00,35.8,26.9,30.36,NE,45,0.0,0.0,70,0.00,CLR,OVC,0.00,WeatherDisplay:10.37,2013-01-15 14:10:00,
2013-01-15 09:15:00,35.8,26.9,30.36,NE,45,0.0,0.0,70,0.00,CLR,OVC,0.00,WeatherDisplay:10.37,2013-01-15 14:15:00,
2013-01-15 09:20:00,36.0,26.8,30.36,NE,45,0.0,0.0,69,0.00,CLR,OVC,0.00,WeatherDisplay:10.37,2013-01-15 14:20:00,
2013-01-15 09:30:00,36.1,26.9,30.35,NE,45,0.0,0.0,69,0.00,CLR,OVC,0.00,WeatherDisplay:10.37,2013-01-15 14:30:00,
2013-01-15 09:40:00,36.1,26.6,30.35,NE,45,0.0,0.0,68,0.00,CLR,OVC,0.00,WeatherDisplay:10.37,2013-01-15 14:40:00,
2013-01-15 09:50:00,36.5,26.9,30.35,NE,45,0.0,0.0,68,0.00,CLR,OVC,0.00,WeatherDisplay:10.37,2013-01-15 14:50:00,
2013-01-15 10:00:00,36.7,26.7,30.35,NE,45,0.0,0.0,67,0.00,CLR,OVC,0.00,WeatherDisplay:10.37,2013-01-15 15:00:00,
2013-01-15 10:05:00,36.9,26.6,30.35,NE,45,0.0,0.0,66,0.00,CLR,OVC,0.00,WeatherDisplay:10.37,2013-01-15 15:05:00,
2013-01-15 10:10:00,37.0,27.1,30.34,NE,45,0.0,0.0,67,0.00,CLR,OVC,0.00,WeatherDisplay:10.37,2013-01-15 15:10:00,
2013-01-15 10:15:00,37.0,27.1,30.34,NE,45,0.0,0.0,67,0.00,CLR,OVC,0.00,WeatherDisplay:10.37,2013-01-15 15:15:00,
2013-01-15 10:20:00,37.0,26.7,30.34,NE,45,0.0,0.0,66,0.00,CLR,OVC,0.00,WeatherDisplay:10.37,2013-01-15 15:20:00,
2013-01-15 10:30:00,37.2,26.9,30.34,NE,45,0.0,0.0,66,0.00,CLR,OVC,0.00,WeatherDisplay:10.37,2013-01-15 15:30:00,
2013-01-15 10:40:00,37.2,26.2,30.34,NE,45,0.0,0.0,64,0.00,CLR,OVC,0.00,WeatherDisplay:10.37,2013-01-15 15:40:00,
2013-01-15 10:50:00,37.4,25.9,30.34,NE,45,0.0,0.0,63,0.00,CLR,OVC,0.00,WeatherDisplay:10.37,2013-01-15 15:50:00,
2013-01-15 11:00:00,37.6,26.1,30.34,NE,45,0.0,0.0,63,0.00,CLR,OVC,0.00,WeatherDisplay:10.37,2013-01-15 16:00:00,
2013-01-15 11:10:00,37.9,26.1,30.33,NE,45,0.0,0.0,62,0.00,CLR,OVC,0.00,WeatherDisplay:10.37,2013-01-15 16:10:00,
2013-01-15 11:15:00,37.8,26.3,30.33,NE,45,0.0,0.0,63,0.00,CLR,OVC,0.00,WeatherDisplay:10.37,2013-01-15 16:15:00,
2013-01-15 11:20:00,37.8,26.3,30.33,NE,45,0.0,0.0,63,0.00,CLR,OVC,0.00,WeatherDisplay:10.37,2013-01-15 16:20:00,
2013-01-15 11:30:00,37.8,25.9,30.32,NE,45,0.0,0.0,62,0.00,CLR,OVC,0.00,WeatherDisplay:10.37,2013-01-15 16:30:00,
2013-01-15 11:40:00,37.9,26.1,30.32,NE,45,0.0,0.0,62,0.00,CLR,OVC,0.00,WeatherDisplay:10.37,2013-01-15 16:40:00,
2013-01-15 11:45:00,37.9,26.1,30.32,NE,45,0.0,0.0,62,0.00,CLR,OVC,0.00,WeatherDisplay:10.37,2013-01-15 16:45:00,
2013-01-15 11:50:00,37.9,25.7,30.32,NE,45,0.0,0.0,61,0.00,CLR,OVC,0.00,WeatherDisplay:10.37,2013-01-15 16:50:00,
2013-01-15 12:00:00,38.1,26.2,30.32,NE,45,0.0,0.0,62,0.00,CLR,OVC,0.00,WeatherDisplay:10.37,2013-01-15 17:00:00,
2013-01-15 12:05:00,38.1,26.2,30.32,NE,45,0.0,0.0,62,0.00,CLR,OVC,0.00,WeatherDisplay:10.37,2013-01-15 17:05:00,
2013-01-15 12:10:00,37.9,25.3,30.32,NE,45,0.0,0.0,60,0.00,CLR,OVC,0.00,WeatherDisplay:10.37,2013-01-15 17:10:00,
2013-01-15 12:15:00,37.9,25.3,30.32,NE,45,0.0,0.0,60,0.00,CLR,OVC,0.00,WeatherDisplay:10.37,2013-01-15 17:15:00,
2013-01-15 12:20:00,37.9,25.3,30.32,NE,45,0.0,0.0,60,0.00,CLR,OVC,0.00,WeatherDisplay:10.37,2013-01-15 17:20:00,
2013-01-15 12:30:00,37.9,25.7,30.30,NE,45,0.0,0.0,61,0.00,CLR,OVC,0.00,WeatherDisplay:10.37,2013-01-15 17:30:00,
2013-01-15 12:40:00,37.9,25.3,30.30,NE,45,0.0,0.0,60,0.00,CLR,OVC,0.00,WeatherDisplay:10.37,2013-01-15 17:40:00,
2013-01-15 12:50:00,37.9,25.7,30.30,NE,45,0.0,0.0,61,0.00,CLR,OVC,0.00,WeatherDisplay:10.37,2013-01-15 17:50:00,
2013-01-15 13:00:00,37.9,25.3,30.30,NE,45,0.0,0.0,60,0.00,CLR,OVC,0.00,WeatherDisplay:10.37,2013-01-15 18:00:00,
2013-01-15 13:10:00,37.8,24.7,30.31,NE,45,0.0,0.0,59,0.00,CLR,OVC,0.00,WeatherDisplay:10.37,2013-01-15 18:10:00,
2013-01-15 13:20:00,37.8,25.1,30.31,NE,45,0.0,0.0,60,0.00,CLR,OVC,0.00,WeatherDisplay:10.37,2013-01-15 18:20:00,
2013-01-15 13:30:00,38.1,25.4,30.30,NE,45,0.0,0.0,60,0.00,CLR,OVC,0.00,WeatherDisplay:10.37,2013-01-15 18:30:00,
2013-01-15 13:40:00,38.1,25.4,30.30,NE,45,0.0,0.0,60,0.00,CLR,OVC,0.00,WeatherDisplay:10.37,2013-01-15 18:40:00,
2013-01-15 13:50:00,38.5,25.8,30.30,NE,45,0.0,0.0,60,0.00,CLR,OVC,0.00,WeatherDisplay:10.37,2013-01-15 18:50:00,
2013-01-15 13:55:00,39.0,25.9,30.30,NE,45,0.0,0.0,59,0.00,CLR,OVC,0.00,WeatherDisplay:10.37,2013-01-15 18:55:00,
2013-01-15 14:00:00,39.0,25.9,30.30,NE,45,0.0,0.0,59,0.00,CLR,OVC,0.00,WeatherDisplay:10.37,2013-01-15 19:00:00,
2013-01-15 14:05:00,38.5,25.4,30.30,NE,45,0.0,0.0,59,0.00,CLR,OVC,0.00,WeatherDisplay:10.37,2013-01-15 19:05:00,
2013-01-15 14:10:00,38.5,25.4,30.30,NE,45,0.0,0.0,59,0.00,CLR,OVC,0.00,WeatherDisplay:10.37,2013-01-15 19:10:00,
2013-01-15 14:20:00,38.5,25.4,30.30,NE,45,0.0,0.0,59,0.00,CLR,OVC,0.00,WeatherDisplay:10.37,2013-01-15 19:20:00,
2013-01-15 14:30:00,38.3,25.6,30.30,NE,45,0.0,0.0,60,0.00,CLR,OVC,0.00,WeatherDisplay:10.37,2013-01-15 19:30:00,
2013-01-15 14:40:00,38.3,25.6,30.30,NE,45,0.0,0.0,60,0.00,CLR,OVC,0.00,WeatherDisplay:10.37,2013-01-15 19:40:00,
2013-01-15 14:50:00,38.3,26.0,30.30,NE,45,0.0,0.0,61,0.00,CLR,OVC,0.00,WeatherDisplay:10.37,2013-01-15 19:50:00,
2013-01-15 15:00:00,37.9,25.7,30.30,NE,45,0.0,0.0,61,0.00,CLR,OVC,0.00,WeatherDisplay:10.37,2013-01-15 20:00:00,
2013-01-15 15:05:00,37.9,25.7,30.30,NE,45,0.0,0.0,61,0.00,CLR,OVC,0.00,WeatherDisplay:10.37,2013-01-15 20:05:00,
2013-01-15 15:10:00,37.8,25.5,30.31,NE,45,0.0,0.0,61,0.00,CLR,OVC,0.00,WeatherDisplay:10.37,2013-01-15 20:10:00,
2013-01-15 15:20:00,37.8,25.9,30.31,NE,45,0.0,0.0,62,0.00,CLR,OVC,0.00,WeatherDisplay:10.37,2013-01-15 20:20:00,
2013-01-15 15:30:00,37.8,25.9,30.32,NE,45,0.0,0.0,62,0.00,CLR,OVC,0.00,WeatherDisplay:10.37,2013-01-15 20:30:00,
2013-01-15 15:35:00,37.6,25.7,30.32,NE,45,0.0,0.0,62,0.00,CLR,OVC,0.00,WeatherDisplay:10.37,2013-01-15 20:35:00,
2013-01-15 15:40:00,37.6,26.1,30.32,NE,45,0.0,0.0,63,0.00,CLR,OVC,0.00,WeatherDisplay:10.37,2013-01-15 20:40:00,
2013-01-15 15:45:00,37.2,25.4,30.32,NE,45,0.0,0.0,62,0.00,CLR,OVC,0.00,WeatherDisplay:10.37,2013-01-15 20:45:00,
2013-01-15 15:50:00,37.0,25.2,30.30,NE,45,0.0,0.0,62,0.00,CLR,OVC,0.00,WeatherDisplay:10.37,2013-01-15 20:50:00,
2013-01-15 16:00:00,36.7,24.9,30.30,NE,45,0.0,0.0,62,0.00,CLR,OVC,0.00,WeatherDisplay:10.37,2013-01-15 21:00:00,
2013-01-15 16:10:00,36.3,24.9,30.28,NE,45,0.0,0.0,63,0.00,CLR,OVC,0.00,WeatherDisplay:10.37,2013-01-15 21:10:00,
2013-01-15 16:20:00,35.8,24.4,30.28,NE,45,0.0,0.0,63,0.00,CLR,OVC,0.00,WeatherDisplay:10.37,2013-01-15 21:20:00,
2013-01-15 16:30:00,35.4,24.4,30.27,NE,45,0.0,0.0,64,0.00,CLR,OVC,0.00,WeatherDisplay:10.37,2013-01-15 21:30:00,
2013-01-15 16:40:00,34.9,23.9,30.27,NE,45,0.0,0.0,64,0.00,CLR,OVC,0.00,WeatherDisplay:10.37,2013-01-15 21:40:00,
2013-01-15 16:45:00,34.9,23.9,30.27,NE,45,0.0,0.0,64,0.00,CLR,OVC,0.00,WeatherDisplay:10.37,2013-01-15 21:45:00,
2013-01-15 16:50:00,34.7,24.1,30.29,NE,45,0.0,0.0,65,0.00,CLR,OVC,0.00,WeatherDisplay:10.37,2013-01-15 21:50:00,
2013-01-15 16:55:00,34.7,24.1,30.29,NE,45,0.0,0.0,65,0.00,CLR,OVC,0.00,WeatherDisplay:10.37,2013-01-15 21:55:00,
2013-01-15 17:05:00,34.3,24.2,30.29,NE,45,0.0,0.0,66,0.00,CLR,OVC,0.00,WeatherDisplay:10.37,2013-01-15 22:05:00,
2013-01-15 17:10:00,34.7,24.5,30.30,NE,45,0.0,0.0,66,0.00,CLR,OVC,0.00,WeatherDisplay:10.37,2013-01-15 22:10:00,
2013-01-15 17:15:00,34.7,24.9,30.30,NE,45,0.0,0.0,67,0.00,CLR,OVC,0.00,WeatherDisplay:10.37,2013-01-15 22:15:00,
2013-01-15 17:20:00,34.7,24.9,30.30,NE,45,0.0,0.0,67,0.00,CLR,OVC,0.00,WeatherDisplay:10.37,2013-01-15 22:20:00,
2013-01-15 17:30:00,34.3,24.5,30.31,NE,45,0.0,0.0,67,0.00,CLR,OVC,0.00,WeatherDisplay:10.37,2013-01-15 22:30:00,
2013-01-15 17:40:00,34.7,25.2,30.31,NE,45,0.0,0.0,68,0.00,CLR,OVC,0.00,WeatherDisplay:10.37,2013-01-15 22:40:00,
2013-01-15 17:50:00,34.7,25.6,30.31,NE,45,0.0,0.0,69,0.00,CLR,OVC,0.00,WeatherDisplay:10.37,2013-01-15 22:50:00,
2013-01-15 18:00:00,34.3,25.2,30.31,NE,45,0.0,0.0,69,0.00,CLR,OVC,0.00,WeatherDisplay:10.37,2013-01-15 23:00:00,
2013-01-15 18:05:00,34.3,25.2,30.31,NE,45,0.0,0.0,69,0.00,CLR,OVC,0.00,WeatherDisplay:10.37,2013-01-15 23:05:00,
2013-01-15 18:10:00,34.3,25.2,30.30,NE,45,0.0,0.0,69,0.00,CLR,OVC,0.00,WeatherDisplay:10.37,2013-01-15 23:10:00,
2013-01-15 18:15:00,34.3,25.2,30.30,NE,45,0.0,0.0,69,0.00,CLR,OVC,0.00,WeatherDisplay:10.37,2013-01-15 23:15:00,
2013-01-15 18:20:00,34.2,25.0,30.30,NE,45,0.0,0.0,69,0.00,CLR,OVC,0.00,WeatherDisplay:10.37,2013-01-15 23:20:00,
2013-01-15 18:30:00,34.3,25.2,30.32,NE,45,0.0,0.0,69,0.00,CLR,OVC,0.00,WeatherDisplay:10.37,2013-01-15 23:30:00,
2013-01-15 18:40:00,34.2,25.0,30.32,NE,45,0.0,0.0,69,0.00,CLR,OVC,0.00,WeatherDisplay:10.37,2013-01-15 23:40:00,
2013-01-15 18:50:00,33.8,24.7,30.32,NE,45,0.0,0.0,69,0.00,CLR,OVC,0.00,WeatherDisplay:10.37,2013-01-15 23:50:00,
2013-01-15 19:00:00,33.8,25.0,30.32,NE,45,0.0,0.0,70,0.00,CLR,OVC,0.00,WeatherDisplay:10.37,2013-01-16 00:00:00,
2013-01-15 19:05:00,34.0,25.6,30.32,NE,45,0.0,0.0,71,0.00,CLR,OVC,0.00,WeatherDisplay:10.37,2013-01-16 00:05:00,
2013-01-15 19:10:00,34.0,25.6,30.32,NE,45,0.0,0.0,71,0.00,CLR,OVC,0.00,WeatherDisplay:10.37,2013-01-16 00:10:00,
2013-01-15 19:15:00,34.0,25.6,30.32,NE,45,0.0,0.0,71,0.00,CLR,OVC,0.00,WeatherDisplay:10.37,2013-01-16 00:15:00,
2013-01-15 19:20:00,34.0,25.6,30.32,NE,45,0.0,0.0,71,0.00,CLR,OVC,0.00,WeatherDisplay:10.37,2013-01-16 00:20:00,
2013-01-15 19:30:00,34.3,25.6,30.31,NE,45,0.0,0.0,70,0.00,CLR,OVC,0.00,WeatherDisplay:10.37,2013-01-16 00:30:00,
2013-01-15 19:40:00,34.7,26.3,30.31,NE,45,0.0,0.0,71,0.00,CLR,OVC,0.00,WeatherDisplay:10.37,2013-01-16 00:40:00,
2013-01-15 19:50:00,34.7,26.6,30.32,NE,45,0.0,0.0,72,0.00,CLR,OVC,0.00,WeatherDisplay:10.37,2013-01-16 00:50:00,
2013-01-15 20:00:00,34.7,26.6,30.32,NE,45,0.0,0.0,72,0.00,CLR,OVC,0.00,WeatherDisplay:10.37,2013-01-16 01:00:00,
2013-01-15 20:10:00,34.9,26.4,30.31,NE,45,0.0,0.0,71,0.00,CLR,OVC,0.00,WeatherDisplay:10.37,2013-01-16 01:10:00,
2013-01-15 20:15:00,34.9,26.8,30.31,NE,45,0.0,0.0,72,0.00,CLR,OVC,0.00,WeatherDisplay:10.37,2013-01-16 01:15:00,
2013-01-15 20:20:00,34.7,26.3,30.31,NE,45,0.0,0.0,71,0.00,CLR,OVC,0.00,WeatherDisplay:10.37,2013-01-16 01:20:00,
2013-01-15 20:30:00,34.7,25.9,30.31,NE,45,0.0,0.0,70,0.00,CLR,OVC,0.00,WeatherDisplay:10.37,2013-01-16 01:30:00,
2013-01-15 20:40:00,34.5,25.4,30.31,NE,45,0.0,0.0,69,0.00,CLR,OVC,0.00,WeatherDisplay:10.37,2013-01-16 01:40:00,
2013-01-15 20:50:00,34.7,25.2,30.32,NE,45,0.0,0.0,68,0.00,CLR,OVC,0.00,WeatherDisplay:10.37,2013-01-16 01:50:00,
2013-01-15 21:00:00,34.3,24.9,30.32,NE,45,0.0,0.0,68,0.00,CLR,OVC,0.00,WeatherDisplay:10.37,2013-01-16 02:00:00,
2013-01-15 21:10:00,34.2,24.7,30.31,NE,45,0.0,0.0,68,0.00,CLR,OVC,0.00,WeatherDisplay:10.37,2013-01-16 02:10:00,
2013-01-15 21:15:00,34.2,25.0,30.31,NE,45,0.0,0.0,69,0.00,CLR,OVC,0.00,WeatherDisplay:10.37,2013-01-16 02:15:00,
2013-01-15 21:20:00,34.2,24.7,30.31,NE,45,0.0,0.0,68,0.00,CLR,OVC,0.00,WeatherDisplay:10.37,2013-01-16 02:20:00,
2013-01-15 21:30:00,34.0,24.2,30.31,NE,45,0.0,0.0,67,0.00,CLR,OVC,0.00,WeatherDisplay:10.37,2013-01-16 02:30:00,
2013-01-15 21:40:00,33.6,23.5,30.31,NNE,28,2.0,5.0,66,0.00,CLR,OVC,0.00,WeatherDisplay:10.37,2013-01-16 02:40:00,
2013-01-15 21:50:00,33.4,23.3,30.31,North,0,2.0,3.0,66,0.00,CLR,OVC,0.00,WeatherDisplay:10.37,2013-01-16 02:50:00,
2013-01-15 22:00:00,33.4,23.3,30.31,NNE,33,2.0,6.0,66,0.00,CLR,OVC,0.00,WeatherDisplay:10.37,2013-01-16 03:00:00,
2013-01-15 22:10:00,33.3,23.1,30.30,NE,42,2.0,6.0,66,0.00,CLR,OVC,0.00,WeatherDisplay:10.37,2013-01-16 03:10:00,
2013-01-15 22:15:00,33.3,23.1,30.30,NNE,33,2.0,4.0,66,0.00,CLR,OVC,0.00,WeatherDisplay:10.37,2013-01-16 03:15:00,
2013-01-15 22:20:00,33.1,22.6,30.30,NNE,30,2.0,3.0,65,0.00,CLR,OVC,0.00,WeatherDisplay:10.37,2013-01-16 03:20:00,
2013-01-15 22:30:00,33.1,22.6,30.30,NE,38,2.0,3.0,65,0.00,CLR,OVC,0.00,WeatherDisplay:10.37,2013-01-16 03:30:00,
2013-01-15 22:40:00,32.9,22.4,30.30,North,352,1.0,2.0,65,0.00,CLR,OVC,0.00,WeatherDisplay:10.37,2013-01-16 03:40:00,
2013-01-15 22:50:00,32.9,22.8,30.30,NNE,19,1.0,4.0,66,0.00,CLR,OVC,0.00,WeatherDisplay:10.37,2013-01-16 03:50:00,
2013-01-15 23:00:00,32.7,22.6,30.30,NE,50,1.0,3.0,66,0.00,CLR,OVC,0.00,WeatherDisplay:10.37,2013-01-16 04:00:00,
2013-01-15 23:10:00,32.9,22.4,30.30,NE,53,1.0,3.0,65,0.00,CLR,OVC,0.00,WeatherDisplay:10.37,2013-01-16 04:10:00,
2013-01-15 23:15:00,32.7,22.2,30.30,ENE,58,1.0,3.0,65,0.00,CLR,OVC,0.00,WeatherDisplay:10.37,2013-01-16 04:15:00,
2013-01-15 23:20:00,32.7,22.2,30.30,NE,39,2.0,6.0,65,0.00,CLR,OVC,0.00,WeatherDisplay:10.37,2013-01-16 04:20:00,
2013-01-15 23:30:00,32.7,22.2,30.30,NE,49,1.0,2.0,65,0.00,CLR,OVC,0.00,WeatherDisplay:10.37,2013-01-16 04:30:00,
2013-01-15 23:40:00,32.5,22.1,30.30,NE,47,1.0,2.0,65,0.00,CLR,OVC,0.00,WeatherDisplay:10.37,2013-01-16 04:40:00,
2013-01-15 23:50:00,32.4,21.5,30.30,NNE,30,1.0,3.0,64,0.00,CLR,OVC,0.00,WeatherDisplay:10.37,2013-01-16 04:50:00,